[[{"header":{"parameterUnit":"m.s-1","parameterCategory":1,"la1":30.2991,"la2":30.254,"lo1":-89.0895,"lo2":-89.0444,"dy":0.0017,"dx":0.0017,"nx":28,"ny":28,"refTime":"2024-04-28T09:00:00:Z","depth":0,"parameterNumber":2,"parameterNumberName":"U-component_of_WINDS"},"data":[0,0,0,0,0,0,0,0,0,0,0,0,0,0,0,0,0,0,0,0,0,0,0,0,0,0,0,0,0,0,0,0,0,0,0,0,0,0,0,0,0,0,0,0,0,0,0,0,0,0,0,0,0,0,0,0,0,0,-4.408,-4.4082,0,-4.4216,-4.4217,-4.4219,-4.4228,-4.4227,-4.4225,-4.4224,-4.4362,-4.4367,-4.4372,0,0,0,0,0,0,0,0,0,0,0,0,0,-4.383,-4.3834,-4.408,-4.4082,-4.4083,-4.4215,-4.4217,-4.4219,-4.4229,-4.4227,-4.4225,-4.4223,-4.4361,-4.4367,-4.4373,0,0,0,0,0,0,0,0,0,0,0,0,0,-4.3949,-4.3836,-4.408,-4.4104,-4.4108,-4.4215,-4.4217,-4.422,-4.4229,-4.4227,-4.4224,-4.4222,-4.4359,-4.4366,-4.4374,-4.4466,0,0,-4.4397,-4.44,0,0,0,0,0,0,0,0,-4.3942,-4.3958,-4.4099,-4.4103,-4.4107,-4.4203,-4.418,-4.4302,-4.423,-4.4183,-4.4224,-4.4221,-4.4311,-4.4322,-4.4353,-4.4472,-4.4478,-4.4398,-4.4402,-4.4405,-4.4408,0,0,0,0,0,0,0,-4.3934,-4.3952,-4.4134,-4.4101,-4.4106,-4.4108,-4.4123,-4.4203,-4.4258,-4.4187,-4.4188,-4.4204,-4.4313,-4.4345,-4.4356,-4.448,-4.4397,-4.4404,-4.4409,-4.4412,-4.4682,-4.4685,0,0,0,0,0,0,-4.3921,-4.3945,-4.4129,-4.4138,-4.4017,-4.4115,-4.4131,-4.4174,-4.4257,-4.4268,-4.4206,-4.4204,-4.4334,-4.4347,-4.4361,-4.4474,-4.4405,-4.4413,-4.4417,-4.468,-4.4683,-4.4686,0,0,0,0,0,0,-4.3916,-4.3937,-4.4124,-4.4042,-4.4066,-4.4121,-4.417,-4.4178,-4.4211,-4.4271,-4.4281,-4.4229,-4.4332,-4.435,-4.444,-4.4479,-4.4416,-4.4423,-4.4676,-4.4681,-4.4684,-4.47,0,0,0,0,0,0,-4.3908,-4.3935,-4.3971,-4.4043,-4.407,-4.42,-4.4172,-4.4182,-4.4224,-4.4223,-4.4296,-4.4306,-4.4332,-4.4428,-4.4447,-4.4488,-4.4429,-4.4673,-4.4678,-4.4683,-4.4697,-4.4704,-4.4711,0,0,0,0,0,-4.3899,-4.397,-4.3972,-4.3995,-4.4116,-4.4202,-4.4218,-4.4247,-4.4227,-4.4263,-4.4302,-4.4303,-4.4472,-4.4437,-4.4459,-4.4503,-4.4671,-4.4677,-4.4683,-4.4693,-4.4703,-4.4711,0,0,0,0,0,0,-4.3901,-4.398,-4.3983,-4.4079,-4.4134,-4.4204,-4.425,-4.4256,-4.4318,-4.4314,-4.4347,-4.4364,-4.4452,-4.4487,-4.4447,-4.4596,-4.4569,-4.458,-4.457,-4.458,-4.4587,-4.4576,-4.4435,0,0,0,0,0,-4.3913,-4.3976,-4.4042,-4.412,-4.4148,-4.4194,-4.4233,-4.4251,-4.4309,-4.4332,-4.4377,-4.4434,-4.4499,-4.4542,-4.4605,-4.4702,-4.4718,-4.4743,-4.475,-4.4756,-4.4764,-4.4817,-4.4829,-4.4705,-4.4705,-4.4705,0,0,-4.3937,-4.3988,-4.4026,-4.4122,-4.4166,-4.4231,-4.4214,-4.4283,-4.4332,-4.4342,-4.4429,-4.4465,-4.453,-4.4623,-4.4667,-4.4655,-4.4802,-4.4763,-4.4767,-4.4773,-4.4824,-4.4836,-4.4846,-4.4709,-4.4708,-4.4707,0,0,-4.4014,-4.406,-4.413,-4.4175,-4.4242,-4.4273,-4.429,-4.4359,-4.4383,-4.4471,-4.448,-4.4539,-4.4651,-4.4697,-4.4735,-4.4831,-4.4834,-4.4851,-4.4888,-4.4939,-4.4949,-4.4958,-4.4991,-4.5002,-4.4859,-4.4859,-4.4859,0,-4.4036,-4.4134,-4.4165,-4.4234,-4.4276,-4.4289,-4.436,-4.4403,-4.4488,-4.4516,-4.4502,-4.4643,-4.4688,-4.4792,-4.4815,-4.4846,-4.4866,-4.4842,-4.4945,-4.4954,-4.4963,-4.4995,-4.5007,-4.4861,-4.486,-4.486,-4.486,0,-4.4157,-4.4225,-4.4274,-4.4355,-4.4403,-4.4473,-4.4514,-4.4558,-4.4572,-4.4604,-4.4694,-4.4748,-4.4823,-4.4849,-4.4864,-4.4956,-4.4946,-4.4938,-4.4911,-4.4976,-4.5006,-4.5019,-4.4863,-4.4862,-4.4862,-4.4861,0,0,-4.4238,-4.4336,-4.4353,-4.439,-4.4466,-4.452,-4.459,-4.4664,-4.4701,-4.4759,-4.4819,-4.4914,-4.4908,-4.4951,-4.4971,-4.5016,-4.5087,-4.5003,-4.5005,-4.5016,-4.5191,-4.5195,-4.5209,-4.5091,-4.5093,-4.5095,-4.5185,0,-4.4323,-4.4448,-4.4478,-4.4586,-4.4649,-4.4663,-4.4725,-4.4778,-4.481,-4.4869,-4.4905,-4.4971,-4.4958,-4.4984,-4.503,-4.5069,-4.5123,-4.5063,-4.5146,-4.5148,-4.5127,-4.5225,-4.523,-4.5311,-4.5197,-4.5199,-4.5201,0,-4.4438,-4.4499,-4.4613,-4.468,-4.4708,-4.4763,-4.4832,-4.4888,-4.4949,-4.497,-4.5018,-4.5033,-4.5108,-4.5078,-4.5181,-4.5139,-4.5175,-4.52,-4.5204,-4.5211,-4.5177,-4.5233,-4.5338,-4.535,-4.522,-4.5219,-4.5217,0,-4.4484,-4.4595,-4.4677,-4.4709,-4.479,-4.4828,-4.4864,-4.4922,-4.4964,-4.5026,-4.5053,-4.5122,-4.516,-4.5213,-4.5246,-4.5222,-4.5346,-4.5319,-4.5364,-4.5363,-4.5388,-4.5385,-4.5498,-4.5414,-4.5413,-4.5413,-4.5413,0,-4.4575,-4.4643,-4.4699,-4.4749,-4.4827,-4.4861,-4.4936,-4.4972,-4.5025,-4.5082,-4.5099,-4.5153,-4.5195,-4.5254,-4.5282,-4.5362,-4.5379,-4.5397,-4.5403,-4.5394,-4.5392,-4.5417,-4.5412,-4.5416,-4.5416,-4.5415,-4.5415,0,-4.4638,-4.4678,-4.4769,-4.4838,-4.4857,-4.4911,-4.4971,-4.5021,-4.5054,-4.5126,-4.5146,-4.5198,-4.5269,-4.5308,-4.5397,-4.5415,-4.5504,-4.5508,-4.5483,-4.5486,-4.5527,-4.5522,-4.5659,-4.5679,-4.5582,-4.5583,-4.5584,0,-4.4693,-4.4746,-4.4821,-4.4861,-4.4897,-4.4961,-4.5004,-4.504,-4.5084,-4.5158,-4.5199,-4.5271,-4.533,-4.5443,-4.5489,-4.5557,-4.5562,-4.5605,-4.5572,-4.5562,-4.5561,-4.5557,-4.5562,-4.561,-4.5611,-4.5612,-4.5612,0,-4.4785,-4.4802,-4.4863,-4.4932,-4.4983,-4.5038,-4.5094,-4.5125,-4.517,-4.5219,-4.5292,-4.5338,-4.5429,-4.55,-4.5572,-4.5609,-4.5618,-4.5623,-4.5636,-4.5627,-4.561,-4.5619,-4.5497,-4.5619,-4.5618,-4.5618,-4.5617,-4.5617,-4.4845,-4.4893,-4.4953,-4.5021,-4.5066,-4.5117,-4.5167,-4.5206,-4.5268,-4.5344,-4.5362,-4.5439,-4.5498,-4.5596,-4.5635,-4.5695,-4.5687,-4.5707,-4.5712,-4.5716,-4.5717,-4.5602,-4.5709,-4.5709,-4.5709,-4.5709,-4.5709,0,-4.4937,-4.4976,-4.5039,-4.5115,-4.5168,-4.5173,-4.5234,-4.5278,-4.5345,-4.54,-4.5458,-4.5542,-4.5611,-4.5663,-4.5733,-4.5772,-4.5777,-4.5789,-4.5785,-4.5794,-4.5721,-4.5701,-4.5783,-4.5783,-4.5783,-4.5783,-4.5783,-4.5783,-4.4991,-4.5071,-4.5096,-4.5199,-4.5238,-4.5313,-4.5348,-4.5395,-4.5439,-4.5531,-4.5589,-4.5622,-4.5676,-4.575,-4.5814,-4.5827,-4.5852,-4.5863,-4.5876,-4.5807,-4.5799,-4.5791,-4.5773,-4.5868,-4.5868,-4.5944,-4.5945,-4.5945]},{"header":{"parameterUnit":"m.s-1","parameterCategory":1,"la1":30.2991,"la2":30.254,"lo1":-89.0895,"lo2":-89.0444,"dy":0.0017,"dx":0.0017,"nx":28,"ny":28,"refTime":"2024-04-28T09:00:00:Z","depth":0,"parameterNumber":3,"parameterNumberName":"V-component_of_WINDS"},"data":[0,0,0,0,0,0,0,0,0,0,0,0,0,0,0,0,0,0,0,0,0,0,0,0,0,0,0,0,0,0,0,0,0,0,0,0,0,0,0,0,0,0,0,0,0,0,0,0,0,0,0,0,0,0,0,0,0,0,5.8126,5.8127,0,5.8201,5.8201,5.8202,5.815,5.8148,5.8145,5.8143,5.8215,5.8219,5.8223,0,0,0,0,0,0,0,0,0,0,0,0,0,5.7936,5.7939,5.8126,5.8127,5.8128,5.8201,5.8202,5.8203,5.815,5.8148,5.8145,5.8142,5.8214,5.8218,5.8223,0,0,0,0,0,0,0,0,0,0,0,0,0,5.8015,5.7941,5.8126,5.8111,5.8111,5.82,5.8202,5.8203,5.8151,5.8148,5.8144,5.8141,5.8212,5.8218,5.8224,5.8331,0,0,5.8243,5.8245,0,0,0,0,0,0,0,0,5.801,5.8022,5.8112,5.8112,5.8112,5.8163,5.816,5.8246,5.8152,5.8136,5.8143,5.8139,5.82,5.8207,5.8228,5.8335,5.8338,5.8243,5.8247,5.825,5.8251,0,0,0,0,0,0,0,5.8005,5.8018,5.8156,5.8114,5.8113,5.8099,5.8107,5.8176,5.8186,5.8137,5.8133,5.8143,5.8199,5.8223,5.823,5.8339,5.8243,5.8248,5.8252,5.8255,5.8537,5.8541,0,0,0,0,0,0,5.8001,5.8014,5.8153,5.8158,5.8052,5.8106,5.8114,5.815,5.8185,5.8188,5.8146,5.814,5.8214,5.8223,5.8232,5.836,5.825,5.8255,5.8259,5.8533,5.8538,5.8542,0,0,0,0,0,0,5.7998,5.8014,5.815,5.8085,5.8101,5.8113,5.8153,5.8153,5.8176,5.8192,5.8193,5.8168,5.8212,5.8223,5.8307,5.8362,5.8258,5.8264,5.8529,5.8535,5.854,5.8617,0,0,0,0,0,0,5.7992,5.8013,5.8055,5.8087,5.8105,5.8226,5.8157,5.8157,5.8188,5.8181,5.8214,5.8216,5.821,5.8299,5.8314,5.8368,5.8268,5.8524,5.8531,5.8538,5.861,5.8625,5.8638,0,0,0,0,0,5.7986,5.8073,5.8058,5.8075,5.8158,5.8229,5.8239,5.8232,5.8192,5.8234,5.8244,5.8215,5.8354,5.8308,5.8324,5.8381,5.852,5.8529,5.8538,5.8604,5.8622,5.8637,0,0,0,0,0,0,5.8046,5.8077,5.806,5.816,5.8193,5.822,5.8272,5.8252,5.8295,5.8287,5.8274,5.8282,5.837,5.8384,5.8332,5.8487,5.843,5.8443,5.8475,5.8493,5.8506,5.8501,5.8273,0,0,0,0,0,5.8071,5.8128,5.8151,5.8237,5.8255,5.8261,5.8292,5.8283,5.8316,5.8329,5.8345,5.8376,5.8427,5.8461,5.8508,5.8612,5.8618,5.8659,5.8673,5.8685,5.8695,5.8751,5.8769,5.857,5.857,5.857,0,0,5.8124,5.8147,5.8184,5.825,5.8274,5.8332,5.8273,5.8336,5.8378,5.8338,5.8418,5.8432,5.8466,5.856,5.8602,5.8574,5.8752,5.8696,5.8705,5.8709,5.8762,5.878,5.8797,5.8576,5.8575,5.8574,0,0,5.8248,5.8272,5.8347,5.8373,5.8411,5.8414,5.8432,5.8463,5.8471,5.8552,5.8523,5.8572,5.866,5.8686,5.871,5.8845,5.882,5.8861,5.8934,5.8988,5.9004,5.9018,5.9065,5.9083,5.8872,5.8872,5.8872,0,5.8308,5.8395,5.8387,5.8454,5.8483,5.8451,5.8526,5.8551,5.8601,5.8622,5.859,5.87,5.8721,5.8821,5.8854,5.8875,5.8894,5.8857,5.9002,5.9016,5.9029,5.9074,5.9092,5.8877,5.8876,5.8876,5.8875,0,5.8466,5.8527,5.8583,5.8635,5.8671,5.8741,5.8742,5.878,5.8768,5.8775,5.8858,5.8882,5.8934,5.8957,5.8946,5.9055,5.9037,5.9004,5.8947,5.9053,5.9095,5.9113,5.8883,5.8882,5.888,5.8879,0,0,5.8631,5.8678,5.8699,5.8722,5.8761,5.8807,5.8876,5.8928,5.896,5.8996,5.9052,5.9128,5.9098,5.9126,5.9118,5.9165,5.9271,5.9127,5.9127,5.9152,5.9392,5.9417,5.9437,5.9254,5.9258,5.926,5.9389,0,5.8757,5.8878,5.8873,5.8985,5.9041,5.9011,5.9071,5.9101,5.9109,5.9156,5.9165,5.9219,5.9175,5.9192,5.9238,5.9248,5.9319,5.9239,5.9305,5.9308,5.9298,5.9459,5.9485,5.9606,5.9406,5.9409,5.9411,0,5.8921,5.8965,5.9083,5.9115,5.9138,5.9191,5.9239,5.9285,5.9318,5.9321,5.9353,5.9337,5.9405,5.9346,5.9439,5.9385,5.9412,5.9421,5.9426,5.9431,5.9365,5.9468,5.9644,5.9662,5.9437,5.9435,5.9433,0,5.9029,5.9117,5.9199,5.922,5.9259,5.9297,5.9315,5.9345,5.9376,5.9418,5.9438,5.9486,5.9512,5.9549,5.9546,5.9504,5.9641,5.9582,5.9644,5.9644,5.9673,5.9671,5.9855,5.9692,5.9691,5.9691,5.9691,0,5.917,5.9244,5.9248,5.9298,5.9379,5.9373,5.9453,5.9466,5.9493,5.9545,5.9522,5.957,5.9564,5.9612,5.961,5.9687,5.9699,5.9703,5.9701,5.9705,5.9704,5.9722,5.9713,5.9696,5.9695,5.9694,5.9693,0,5.9304,5.931,5.9398,5.9428,5.9437,5.9496,5.9521,5.9568,5.9574,5.964,5.9655,5.9665,5.9721,5.9722,5.9786,5.9784,5.9879,5.9868,5.9868,5.9866,5.9927,5.9922,6.0128,6.0155,5.9975,5.9976,5.9978,0,5.9394,5.945,5.9487,5.9521,5.9541,5.9596,5.9629,5.9624,5.9659,5.9701,5.9743,5.9797,5.984,5.9931,5.9943,5.9992,5.9982,6.0051,5.9989,5.9991,5.9982,5.9979,5.9984,6.0063,6.0065,6.0066,6.0068,0,5.9553,5.9554,5.9602,5.9653,5.9693,5.9732,5.9768,5.9796,5.9795,5.9835,5.9893,5.9927,5.9993,6.0047,6.0094,6.0111,6.0089,6.0087,6.0104,6.0108,6.0106,6.0108,5.9901,6.0082,6.0081,6.008,6.0079,6.0079,5.9668,5.9716,5.975,5.9805,5.9832,5.9866,5.9912,5.9925,5.9974,6.0028,6.0022,6.0086,6.0117,6.0179,6.02,6.0249,6.0225,6.025,6.0256,6.0262,6.0268,6.0099,6.0258,6.0257,6.0257,6.0257,6.0256,0,5.9825,5.9846,5.9897,5.9949,5.9992,5.9969,6.0008,6.0045,6.0103,6.0134,6.0178,6.0244,6.0296,6.0313,6.0363,6.0399,6.0391,6.0413,6.041,6.0414,6.0287,6.0268,6.0419,6.0419,6.0419,6.0419,6.0419,6.0419,5.9913,5.9994,5.9998,6.0091,6.0111,6.0175,6.0199,6.023,6.0255,6.0331,6.0375,6.0386,6.0411,6.0463,6.051,6.0513,6.0532,6.0559,6.0558,6.0439,6.0423,6.0407,6.0389,6.0563,6.0563,6.068,6.0681,6.0682]}]]